Rochester, NY

11:17 PM EDT on September 18, 2019 (GMT -0400)
Greater Rochester International

Weather History for KROC - July, 2019

Change the Weather History Date:

Tuesday, July 30, 2019

  Actual Average Record
Temperature  
Mean Temperature 76 °F 71 °F  
Max Temperature 84 °F 81 °F 96 °F (1933)
Min Temperature 68 °F 61 °F 45 °F (1968)
Degree Days  
Heating Degree Days 0 0  
Month to date heating degree days 0 6  
Since 1 June heating degree days 48 74  
Since 1 July heating degree days 0 6  
Cooling Degree Days 11 6  
Month to date cooling degree days 284 180  
Year to date cooling degree days 377 316  
Since 1 June cooling degree days 367 286  
Growing Degree Days 26 (Base 50)    
Moisture  
Dew Point 67 °F    
Average Humidity 74    
Maximum Humidity 90    
Minimum Humidity 58    
Precipitation  
Precipitation 0.01 in 0.11 in 1.86 in (1911)
Month to date precipitation 2.64 3.22  
Year to date precipitation 19.11 19.02  
Snow  
Snow 0.00 in 0.00 in 0.00 in ()
Month to date snowfall 0.0 0.0  
Since 1 June snowfall 0.0 0.0  
Since 1 July snowfall 0.0 0.0  
Snow Depth 0.00 in    
Sea Level Pressure  
Sea Level Pressure 29.94 in    
Wind  
Wind Speed 7 mph (WSW)    
Max Wind Speed 22 mph    
Max Gust Speed 28 mph    
Visibility 10 miles    
Events Rain    
T = Trace of Precipitation, MM = Missing Value Source: NWS Daily Summary

Daily Weather History Graph

Daily Weather History Graph

Search for Another Location

Airport or City:

Astronomy

Jul. 30, 2019 Rise Set
Actual Time 5:58 AM EDT 8:34 PM EDT
Civil Twilight 5:26 AM EDT 9:07 PM EDT
Nautical Twilight 4:45 AM EDT 9:47 PM EDT
Astronomical Twilight 3:59 AM EDT 10:33 PM EDT
Moon 4:03 AM EDT (7/30) 7:39 PM EDT (7/30)
Length of Visible Light 15h 40m
Length of Day
14h 35m
Waning Crescent, 3% of the Moon is Illuminated
Jul 30
Waning Crescent
Jul 31
New
Aug 7
First Quarter
Aug 15
Full
Aug 23
Last Quarter

Hourly Weather History & Observations

Time (EDT) Temp. Heat Index Dew Point Humidity Pressure Visibility Wind Dir Wind Speed Gust Speed Precip Events Conditions
12:54 AM 75.9 °F - 66.0 °F 71% 29.92 in 10.0 mi WSW 9.2 mph - N/A   Mostly Cloudy
1:54 AM 75.0 °F - 64.9 °F 71% 29.92 in 10.0 mi West 8.1 mph - N/A   Overcast
2:54 AM 72.0 °F - 64.9 °F 78% 29.91 in 10.0 mi South 3.5 mph - N/A   Partly Cloudy
3:54 AM 71.1 °F - 64.9 °F 81% 29.91 in 10.0 mi Calm Calm - N/A   Partly Cloudy
4:54 AM 70.0 °F - 64.9 °F 84% 29.92 in 10.0 mi SSW 4.6 mph - N/A   Scattered Clouds
5:54 AM 69.1 °F - 64.9 °F 87% 29.92 in 9.0 mi Calm Calm - N/A   Scattered Clouds
6:54 AM 70.0 °F - 64.9 °F 84% 29.93 in 8.0 mi SW 4.6 mph - N/A   Mostly Cloudy
7:54 AM 73.0 °F - 66.0 °F 79% 29.94 in 10.0 mi West 4.6 mph - N/A   Mostly Cloudy
8:54 AM 77.0 °F - 66.9 °F 71% 29.94 in 10.0 mi Variable 4.6 mph - 0.00 in Rain Light Rain
9:54 AM 77.0 °F - 66.9 °F 71% 29.94 in 10.0 mi SSW 9.2 mph - 0.00 in   Mostly Cloudy
10:54 AM 78.1 °F - 66.9 °F 68% 29.95 in 10.0 mi West 5.8 mph - 0.00 in   Overcast
11:54 AM 79.0 °F - 66.9 °F 66% 29.95 in 10.0 mi WSW 10.4 mph - N/A   Overcast
12:54 PM 77.0 °F - 69.1 °F 76% 29.94 in 10.0 mi WSW 6.9 mph - 0.00 in Rain Light Rain
1:54 PM 81.0 °F 83.3 °F 66.9 °F 62% 29.94 in 10.0 mi WSW 18.4 mph 25.3 mph 0.00 in   Mostly Cloudy
2:54 PM 81.0 °F 83.0 °F 66.0 °F 60% 29.93 in 10.0 mi West 19.6 mph 27.6 mph N/A   Mostly Cloudy
3:54 PM 82.0 °F 84.1 °F 66.0 °F 58% 29.92 in 10.0 mi WNW 15.0 mph - N/A   Mostly Cloudy
4:54 PM 79.0 °F - 66.9 °F 66% 29.94 in 10.0 mi WNW 5.8 mph - N/A   Mostly Cloudy
5:54 PM 77.0 °F - 69.1 °F 76% 29.94 in 10.0 mi SW 9.2 mph - 0.01 in   Overcast
6:54 PM 75.9 °F - 70.0 °F 82% 29.93 in 10.0 mi SW 8.1 mph - N/A   Overcast
7:54 PM 73.9 °F - 69.1 °F 85% 29.96 in 10.0 mi SW 6.9 mph - N/A   Mostly Cloudy
8:54 PM 73.0 °F - 69.1 °F 87% 29.97 in 10.0 mi SSW 6.9 mph - N/A   Scattered Clouds
9:54 PM 70.0 °F - 66.9 °F 90% 29.99 in 10.0 mi SW 5.8 mph - N/A   Scattered Clouds
10:54 PM 70.0 °F - 66.9 °F 90% 30.00 in 10.0 mi WSW 6.9 mph - N/A   Partly Cloudy
11:54 PM 69.1 °F - 66.0 °F 90% 30.01 in 10.0 mi SW 4.6 mph - N/A   Scattered Clouds